Volver al catálogo

SL-8 R/B

ActivoPO
NORAD 15598·ROCKET BODY·🇷🇺 Russia

Lanzado Mar 14, 1985 desde Plesetsk Cosmodrome

Loading…

Próximos Pases (próximas 24 horas)

TLE

ActualizadoSource: Space-Track

Época: Sep 14, 2026, 13:56 UTC

1 15598U 85022B   26257.58115122  .00000001  00000-0 -14069-4 0  9998
2 15598  82.9350 117.1027 0022746  28.2241   0.5346 13.76848086 84782

Sigue SL-8 R/B en tiempo real con AllMySat

Download on the App Store